CDT,Max TemperatureF,Mean TemperatureF,Min TemperatureF,Max Dew PointF,MeanDew PointF,Min DewpointF,Max Humidity, Mean Humidity, Min Humidity, Max Sea Level PressureIn, Mean Sea Level PressureIn, Min Sea Level PressureIn, Max VisibilityMiles, Mean VisibilityMiles, Min VisibilityMiles, Max Wind SpeedMPH, Mean Wind SpeedMPH, Max Gust SpeedMPH,PrecipitationIn, CloudCover, Events, WindDirDegrees
2012-9-1,87,69,51,61,52,48,94,58,30,30.11,30.04,29.96,10,10,5,18,7,24,0.00,0,,118
2012-9-2,91,76,62,66,58,52,83,56,31,29.95,29.85,29.77,10,10,4,22,10,29,0.00,0,,167
2012-9-3,91,72,53,61,50,30,100,56,11,29.94,29.88,29.82,10,9,1,10,5,,0.00,0,,117
2012-9-4,89,71,53,59,50,30,100,54,12,29.85,29.81,29.75,10,10,7,14,5,,0.00,0,Thunderstorm,52
2012-9-5,77,66,53,54,46,36,94,53,22,29.93,29.88,29.74,10,10,10,17,7,24,0.00,0,,311
2012-9-6,77,62,46,54,47,41,93,61,29,29.95,29.91,29.86,10,10,10,13,3,16,0.00,2,Rain-Thunderstorm,130
2012-9-7,69,58,46,54,47,36,94,68,28,30.10,30.03,29.94,10,10,7,22,10,29,0.00,3,Thunderstorm,336
2012-9-8,73,58,42,46,41,27,100,57,18,30.12,30.01,29.92,10,10,10,28,11,37,0.00,1,,304
2012-9-9,75,58,41,48,42,34,100,60,22,30.23,30.14,30.03,10,10,7,8,4,,0.00,0,,238
2012-9-10,89,70,51,48,43,37,76,43,17,30.02,29.82,29.68,10,10,7,24,11,37,0.00,0,,165
2012-9-11,89,73,57,50,45,36,72,44,19,29.95,29.70,29.63,10,10,10,17,8,22,0.01,1,Rain-Thunderstorm,175
2012-9-12,69,58,48,52,44,25,88,64,20,30.24,30.14,29.96,10,10,10,9,4,,0.04,2,Rain,254
2012-9-13,77,58,39,41,28,10,93,44,8,30.33,30.28,30.23,10,10,7,13,4,21,0.00,0,,272
2012-9-14,78,58,39,39,32,23,87,43,13,30.32,30.26,30.19,10,10,10,14,7,21,0.00,0,,94
2012-9-15,89,63,37,43,36,23,93,46,9,30.19,30.02,29.88,10,10,7,15,6,23,0.00,0,,176
2012-9-16,78,64,51,46,40,34,82,45,21,30.04,29.93,29.87,10,10,10,22,9,29,0.00,0,Rain-Thunderstorm,326
2012-9-17,62,50,37,46,39,34,93,70,34,30.08,30.05,30.02,10,10,10,26,8,32,0.03,2,Rain,325
2012-9-18,62,48,35,39,34,27,100,62,27,30.07,29.98,29.78,10,10,10,10,5,,0.00,2,,217
2012-9-19,71,58,44,45,35,28,67,42,20,29.90,29.76,29.63,10,10,10,28,11,40,0.00,1,,285
2012-9-20,68,54,41,37,31,25,76,43,20,29.97,29.92,29.88,10,10,10,17,8,28,0.00,2,Rain,290
2012-9-21,66,54,42,45,35,16,82,47,23,30.04,29.88,29.83,10,10,10,31,7,39,0.00,3,Rain,337
2012-9-22,57,46,35,34,28,21,75,54,25,30.28,30.22,30.04,10,10,10,20,13,28,0.00,0,,329
2012-9-23,62,45,28,32,25,18,93,55,18,30.34,30.26,30.14,10,10,7,10,4,,0.00,0,,276
2012-9-24,82,57,32,36,29,21,87,46,12,30.13,29.89,29.75,10,9,2,16,4,24,0.00,0,,245
2012-9-25,69,53,37,39,33,27,87,52,20,30.01,29.91,29.82,10,10,5,13,5,17,0.00,0,,347
2012-9-26,66,48,30,37,30,25,93,54,21,30.20,30.12,30.02,10,10,5,9,4,,0.00,0,,3
2012-9-27,73,52,30,34,28,21,87,47,14,30.26,30.20,30.15,10,10,7,8,2,,0.00,0,,146
2012-9-28,82,60,37,37,28,18,81,39,10,30.19,30.14,30.09,10,10,7,8,3,,0.00,0,,178
2012-9-29,86,64,41,37,31,19,76,38,9,30.13,30.07,29.99,10,10,7,7,3,,0.00,0,,175
2012-9-30,87,63,39,45,35,25,81,42,10,30.01,29.93,29.85,10,10,7,10,3,,0.00,0,,212